Location: Nelson
(41.2830°S, 173.2830°E)
Time: 03:37:25
(UTC+13:00)

ISS - Pass Details

Date: 31 January 2019
Orbit: 403 x 411 km, 51.6° (Epoch: 16 February)

Event Time Altitude Azimuth Distance (km) Brightness Sun altitude
Exits shadow 04:37:20 30° 27° (NNE) 776 -2.6 -18.2°
Maximum altitude 04:37:47 31° 44° (NE) 753 -2.5 -18.2°
Drops below altitude 10° 04:40:48 10° 108° (ESE) 1,495 0.0 -17.8°
Sets 04:43:02 0° 118° (ESE) 2,362 1.5 -17.5°
